Weather History for K1P1 - December, 2012

Change the Weather History Date:

Tuesday, December 11, 2012

  Actual Average (KLCI) Record (KLCI)
Temperature  
Mean Temperature 36 °F -  
Max Temperature 42 °F 37 °F 53 °F (1987)
Min Temperature 30 °F 20 °F 6 °F (1988)
Degree Days  
Heating Degree Days 29    
Moisture  
Dew Point 28 °F    
Average Humidity 75    
Maximum Humidity 87    
Minimum Humidity 65    
Precipitation  
Precipitation 0.09 in - - ()
Sea Level Pressure  
Sea Level Pressure 29.85 in    
Wind  
Wind Speed 8 mph (WNW)    
Max Wind Speed 14 mph    
Max Gust Speed 22 mph    
Visibility 10 miles    
Events Rain    
Averages and records for this station are not official NWS values.
T = Trace of Precipitation, MM = Missing Value Source: NWS Daily Summary

Daily Weather History Graph

Daily Weather History Graph

Search for Another Location

Airport or City:

Trip Planner

Search our weather history database for the weather conditions in past years. The results will help you decide how hot, cold, wet, or windy it might be!

Date:

Astronomy

Dec. 11, 2012 Rise Set
Actual Time 7:11 AM EST 4:09 PM EST
Civil Twilight 6:38 AM EST 4:42 PM EST
Nautical Twilight 6:02 AM EST 5:18 PM EST
Astronomical Twilight 5:27 AM EST 5:53 PM EST
Moon 5:00 AM EST (12/11) 2:47 PM EST (12/11)
Length of Visible Light 10h 04m
Length of Day
8h 58m
Waning Crescent, 4% of the Moon is Illuminated
Dec 11
Waning Crescent
Dec 13
New
Dec 20
First Quarter
Dec 28
Full
Jan 4
Last Quarter

Hourly Weather History & Observations

Time (EST) Temp. Windchill Dew Point Humidity Pressure Visibility Wind Dir Wind Speed Gust Speed Precip Events Conditions
12:15 AM 42.8 °F 38.0 °F 38.5 °F 85% 29.55 in 10.0 mi West 8.1 mph 19.6 mph N/A   Overcast
12:35 AM 41.9 °F 36.9 °F 38.3 °F 87% 29.55 in 10.0 mi WNW 8.1 mph - N/A   Overcast
12:55 AM 41.9 °F 35.0 °F 37.4 °F 84% 29.57 in 10.0 mi West 12.7 mph - N/A   Overcast
1:15 AM 41.4 °F 34.7 °F 36.5 °F 83% 29.58 in 10.0 mi West 11.5 mph 17.3 mph N/A   Overcast
1:35 AM 41.0 °F 35.8 °F 36.5 °F 84% 29.57 in 10.0 mi West 8.1 mph - N/A   Overcast
1:55 AM 40.8 °F 35.6 °F 36.1 °F 83% 29.58 in 10.0 mi WNW 8.1 mph - N/A   Mostly Cloudy
2:15 AM 40.5 °F 36.5 °F 36.0 °F 84% 29.58 in 10.0 mi West 5.8 mph - N/A   Mostly Cloudy
2:35 AM 40.6 °F 35.4 °F 35.8 °F 83% 29.59 in 10.0 mi WNW 8.1 mph - N/A   Mostly Cloudy
2:55 AM 40.6 °F 36.0 °F 35.4 °F 82% 29.61 in 10.0 mi West 6.9 mph - N/A   Mostly Cloudy
3:15 AM 40.5 °F 35.1 °F 35.2 °F 82% 29.62 in 10.0 mi West 8.1 mph - N/A   Mostly Cloudy
3:35 AM 40.3 °F 34.4 °F 35.1 °F 82% 29.63 in 10.0 mi West 9.2 mph - N/A   Overcast
3:55 AM 40.1 °F 35.3 °F 35.1 °F 82% 29.63 in 10.0 mi West 6.9 mph - N/A   Overcast
4:15 AM 39.6 °F 34.0 °F 35.2 °F 85% 29.63 in 10.0 mi West 8.1 mph - N/A   Overcast
4:35 AM 39.0 °F 33.4 °F 35.1 °F 86% 29.64 in 10.0 mi West 8.1 mph - N/A   Overcast
4:55 AM 38.5 °F 34.1 °F 35.1 °F 87% 29.66 in 10.0 mi West 5.8 mph - N/A   Overcast
5:15 AM 38.7 °F 34.3 °F 34.5 °F 85% 29.66 in 10.0 mi West 5.8 mph - N/A Rain Light Rain
5:35 AM 38.5 °F 32.7 °F 34.2 °F 84% 29.67 in 10.0 mi WNW 8.1 mph - N/A Rain Light Rain
5:55 AM 38.3 °F 34.8 °F 34.0 °F 84% 29.68 in 10.0 mi WNW 4.6 mph - N/A   Overcast
6:15 AM 38.3 °F 34.8 °F 34.0 °F 84% 29.69 in 10.0 mi West 4.6 mph - N/A   Overcast
6:35 AM 38.3 °F 33.2 °F 34.0 °F 84% 29.70 in 10.0 mi West 6.9 mph - N/A   Overcast
7:15 AM 38.3 °F 33.9 °F 33.3 °F 82% 29.71 in 10.0 mi West 5.8 mph - N/A   Overcast
7:35 AM 37.4 °F 31.4 °F 32.2 °F 81% 29.72 in 10.0 mi West 8.1 mph - N/A   Overcast
7:55 AM 37.0 °F 32.4 °F 32.2 °F 83% 29.75 in 10.0 mi West 5.8 mph - N/A   Overcast
8:15 AM 36.5 °F 29.2 °F 31.6 °F 83% 29.76 in 10.0 mi West 10.4 mph - N/A   Overcast
8:35 AM 36.5 °F 29.7 °F 30.9 °F 80% 29.77 in 10.0 mi West 9.2 mph - N/A   Overcast
8:55 AM 36.1 °F 28.7 °F 30.2 °F 79% 29.80 in 10.0 mi West 10.4 mph 16.1 mph N/A   Overcast
9:15 AM 35.6 °F 29.9 °F 29.8 °F 80% 29.82 in 10.0 mi West 6.9 mph - N/A   Overcast
9:35 AM 35.2 °F 29.5 °F 30.0 °F 81% 29.82 in 10.0 mi WNW 6.9 mph - N/A   Overcast
9:55 AM 35.2 °F 29.5 °F 29.7 °F 80% 29.83 in 10.0 mi WNW 6.9 mph 16.1 mph N/A   Overcast
10:15 AM 35.2 °F 27.6 °F 29.5 °F 80% 29.84 in 10.0 mi WNW 10.4 mph - N/A   Overcast
10:35 AM 34.9 °F 27.7 °F 29.1 °F 79% 29.84 in 10.0 mi WNW 9.2 mph 16.1 mph N/A   Overcast
10:55 AM 34.7 °F 26.9 °F 28.4 °F 78% 29.84 in 10.0 mi WNW 10.4 mph 17.3 mph N/A   Overcast
11:15 AM 34.2 °F 25.7 °F 28.0 °F 78% 29.86 in 10.0 mi NW 11.5 mph 18.4 mph N/A   Overcast
11:35 AM 34.7 °F 27.5 °F 27.7 °F 76% 29.85 in 10.0 mi NW 9.2 mph - N/A   Overcast
11:55 AM 35.6 °F 28.6 °F 28.2 °F 75% 29.85 in 10.0 mi NW 9.2 mph - N/A   Overcast
12:15 PM 35.6 °F 26.6 °F 27.5 °F 72% 29.85 in 10.0 mi WNW 13.8 mph 20.7 mph N/A   Overcast
12:35 PM 36.0 °F 28.5 °F 27.1 °F 70% 29.86 in 10.0 mi WNW 10.4 mph 17.3 mph N/A   Overcast
12:55 PM 35.1 °F 26.9 °F 25.7 °F 69% 29.86 in 10.0 mi WNW 11.5 mph 19.6 mph N/A   Overcast
1:15 PM 35.1 °F 27.9 °F 25.2 °F 67% 29.87 in 10.0 mi West 9.2 mph 21.9 mph N/A   Mostly Cloudy
1:35 PM 34.9 °F 27.1 °F 25.2 °F 68% 29.88 in 10.0 mi NW 10.4 mph 17.3 mph N/A   Mostly Cloudy
1:55 PM 34.7 °F 26.9 °F 25.0 °F 68% 29.89 in 10.0 mi WNW 10.4 mph 16.1 mph N/A   Overcast
2:15 PM 34.2 °F 27.5 °F 24.4 °F 68% 29.90 in 10.0 mi WNW 8.1 mph 18.4 mph N/A   Overcast
2:35 PM 34.0 °F 26.0 °F 24.3 °F 68% 29.92 in 10.0 mi WNW 10.4 mph - N/A   Overcast
2:55 PM 33.8 °F 27.7 °F 23.7 °F 67% 29.94 in 10.0 mi WNW 6.9 mph - N/A   Overcast
3:15 PM 33.6 °F 26.8 °F 24.1 °F 68% 29.94 in 10.0 mi WNW 8.1 mph - N/A   Overcast
3:35 PM 33.3 °F 27.9 °F 24.6 °F 71% 29.95 in 10.0 mi WNW 5.8 mph - N/A   Overcast
3:55 PM 33.1 °F 30.0 °F 24.1 °F 70% 29.96 in 10.0 mi West 3.5 mph - N/A   Overcast
4:15 PM 32.9 °F 24.7 °F 23.7 °F 69% 29.96 in 10.0 mi WNW 10.4 mph 16.1 mph N/A   Overcast
4:35 PM 32.7 °F 26.4 °F 24.1 °F 71% 29.97 in 10.0 mi WNW 6.9 mph - N/A   Overcast
4:55 PM 32.5 °F 26.2 °F 23.5 °F 69% 29.98 in 10.0 mi WNW 6.9 mph - N/A   Overcast
5:15 PM 32.5 °F 28.1 °F 23.5 °F 69% 29.99 in 10.0 mi WNW 4.6 mph - N/A   Overcast
5:35 PM 32.2 °F 26.7 °F 23.4 °F 70% 29.99 in 10.0 mi WNW 5.8 mph - N/A   Overcast
5:55 PM 32.4 °F 26.9 °F 23.0 °F 68% 30.00 in 10.0 mi West 5.8 mph - N/A   Overcast
6:15 PM 32.4 °F 27.9 °F 23.2 °F 69% 30.01 in 10.0 mi West 4.6 mph - N/A   Overcast
6:35 PM 32.5 °F 26.2 °F 23.0 °F 68% 30.01 in 10.0 mi WNW 6.9 mph - N/A   Overcast
6:55 PM 32.2 °F 26.7 °F 22.8 °F 68% 30.03 in 10.0 mi West 5.8 mph - N/A   Overcast
7:15 PM 32.0 °F 26.4 °F 23.0 °F 69% 30.04 in 10.0 mi West 5.8 mph - N/A   Overcast
7:35 PM 31.8 °F 27.3 °F 22.6 °F 69% 30.04 in 10.0 mi NW 4.6 mph - N/A   Mostly Cloudy
7:55 PM 31.6 °F 26.0 °F 22.8 °F 70% 30.04 in 10.0 mi NW 5.8 mph - N/A   Mostly Cloudy
8:15 PM 31.6 °F 27.0 °F 22.8 °F 70% 30.05 in 10.0 mi NW 4.6 mph - N/A   Overcast
8:35 PM 31.3 °F 26.6 °F 22.8 °F 71% 30.06 in 10.0 mi NW 4.6 mph - N/A   Overcast
8:55 PM 31.1 °F 21.4 °F 21.7 °F 68% 30.07 in 10.0 mi NW 12.7 mph 16.1 mph N/A   Mostly Cloudy
9:15 PM 31.5 °F 24.2 °F 21.9 °F 68% 30.06 in 10.0 mi WNW 8.1 mph - N/A   Overcast
9:35 PM 31.5 °F 24.2 °F 21.9 °F 68% 30.07 in 10.0 mi NW 8.1 mph - N/A   Overcast
9:55 PM 31.6 °F 22.6 °F 21.2 °F 65% 30.08 in 10.0 mi WNW 11.5 mph 19.6 mph N/A   Mostly Cloudy
10:15 PM 31.8 °F 23.9 °F 21.7 °F 66% 30.09 in 10.0 mi WNW 9.2 mph - N/A   Overcast
10:35 PM 31.5 °F 26.8 °F 22.1 °F 68% 30.10 in 10.0 mi WNW 4.6 mph - N/A   Overcast
10:55 PM 31.1 °F 25.4 °F 21.7 °F 68% 30.10 in 10.0 mi WNW 5.8 mph - N/A   Overcast
11:15 PM 30.9 °F 23.5 °F 21.9 °F 69% 30.11 in 10.0 mi WNW 8.1 mph - N/A   Overcast
11:35 PM 30.9 °F 26.2 °F 21.7 °F 69% 30.12 in 10.0 mi NW 4.6 mph - N/A   Overcast
11:55 PM 30.7 °F 26.0 °F 22.1 °F 70% 30.12 in 10.0 mi WNW 4.6 mph - N/A   Overcast